[[{"header":{"parameterUnit":"m.s-1","parameterCategory":1,"la1":30.2992,"la2":30.254,"lo1":-89.0895,"lo2":-89.0443,"dy":0.0025,"dx":0.0025,"nx":19,"ny":19,"refTime":"2026-04-05T03:00:00:Z","depth":0,"parameterNumber":2,"parameterNumberName":"U-component_of_WINDS"},"data":[0,0,0,-1.019,-1.0191,-1.0204,-1.0204,-1.0231,-1.0232,0,0,0,0,0,0,0,0,0,0,0,-1.0192,-1.0192,-1.019,-1.0191,-1.0204,-1.0204,-1.0231,-1.0232,0,0,0,0,0,0,0,0,0,0,0,-1.0192,-1.0192,-1.0193,-1.0191,-1.0204,-1.0204,-1.0231,-1.0218,0,0,0,0,0,0,0,0,0,0,-1.0203,-1.021,-1.0192,-1.0193,-1.0191,-1.0204,-1.0204,-1.0217,-1.0218,-1.0229,0,-1.024,0,-1.0236,-1.0234,-1.0234,0,0,0,-1.0187,-1.0209,-1.0207,-1.0193,-1.0191,-1.0204,-1.0197,-1.0218,-1.022,-1.0232,-1.0241,-1.0241,-1.0237,-1.0234,-1.0235,-1.031,-1.031,0,0,-1.0186,-1.0198,-1.0206,-1.0209,-1.0207,-1.0197,-1.0197,-1.0219,-1.023,-1.0241,-1.0242,-1.0237,-1.0235,-1.0235,-1.0309,-1.031,0,0,0,-1.0186,-1.0198,-1.0195,-1.0208,-1.0209,-1.0197,-1.0198,-1.0229,-1.0227,-1.0242,-1.0238,-1.0235,-1.0235,-1.0309,-1.0309,-1.0348,0,0,0,-1.0186,-1.0198,-1.0195,-1.0203,-1.0209,-1.0219,-1.0208,-1.0225,-1.0227,-1.0238,-1.0235,-1.0236,-1.0308,-1.0309,-1.0346,-1.0366,0,0,0,-1.0189,-1.0198,-1.0202,-1.0203,-1.0209,-1.0219,-1.0218,-1.0225,-1.0225,-1.0234,-1.0236,-1.0308,-1.0309,-1.0344,-1.0362,-1.0389,0,0,0,-1.0197,-1.0237,-1.0203,-1.0246,-1.0209,-1.0242,-1.0217,-1.0241,-1.0254,-1.0235,-1.0308,-1.0309,-1.0343,-1.036,-1.0387,-1.0415,-1.0428,0,0,-1.0255,-1.0245,-1.0269,-1.0239,-1.0281,-1.0239,-1.0286,-1.0287,-1.0277,-1.0299,-1.0301,-1.0347,-1.0362,-1.0389,-1.0491,-1.0501,0,0,0,-1.0292,-1.031,-1.0318,-1.033,-1.0331,-1.0333,-1.0324,-1.0324,-1.0342,-1.0291,-1.0363,-1.0371,-1.0387,-1.04,-1.0408,-1.0421,-1.0315,-1.0315,-1.0315,-1.0394,-1.0377,-1.0416,-1.0401,-1.0413,-1.0403,-1.0411,-1.0409,-1.0391,-1.0407,-1.0415,-1.0479,-1.0494,-1.0501,-1.0514,-1.0427,-1.0427,-1.0427,-1.0427,-1.0478,-1.0502,-1.0473,-1.0501,-1.0483,-1.0507,-1.0498,-1.0483,-1.0502,-1.0472,-1.0485,-1.0455,-1.0512,-1.0523,-1.043,-1.043,-1.0429,-1.0429,-1.0429,-1.0545,-1.0553,-1.0551,-1.0565,-1.0578,-1.0561,-1.058,-1.0563,-1.0547,-1.056,-1.0566,-1.0565,-1.0563,-1.0563,-1.0563,-1.0564,-1.0564,-1.0564,-1.0564,-1.0615,-1.0611,-1.063,-1.0631,-1.0636,-1.064,-1.0628,-1.0632,-1.0633,-1.0619,-1.0619,-1.0599,-1.052,-1.0502,-1.0568,-1.0567,-1.0566,-1.0566,-1.0566,-1.0711,-1.0686,-1.0714,-1.0719,-1.0718,-1.0732,-1.0709,-1.0718,-1.0719,-1.0729,-1.0705,-1.0649,-1.0638,-1.0631,-1.0616,-1.0707,-1.0707,-1.0707,-1.0708,-1.0768,-1.0759,-1.0784,-1.0792,-1.0797,-1.0778,-1.0811,-1.0801,-1.0787,-1.0787,-1.077,-1.0748,-1.0741,-1.0734,-1.0725,-1.0711,-1.0824,-1.0824,-1.0825,-1.0826,-1.0817,-1.0848,-1.0833,-1.0831,-1.083,-1.0859,-1.087,-1.0849,-1.0829,-1.0786,-1.0781,-1.0744,-1.0733,-1.0715,-1.0701,-1.0675,0,0]},{"header":{"parameterUnit":"m.s-1","parameterCategory":1,"la1":30.2992,"la2":30.254,"lo1":-89.0895,"lo2":-89.0443,"dy":0.0025,"dx":0.0025,"nx":19,"ny":19,"refTime":"2026-04-05T03:00:00:Z","depth":0,"parameterNumber":3,"parameterNumberName":"V-component_of_WINDS"},"data":[0,0,0,-6.2387,-6.2388,-6.2388,-6.2388,-6.2407,-6.2407,0,0,0,0,0,0,0,0,0,0,0,-6.2398,-6.2398,-6.2387,-6.2388,-6.2388,-6.2388,-6.2407,-6.2407,0,0,0,0,0,0,0,0,0,0,0,-6.2398,-6.2398,-6.2399,-6.2388,-6.2388,-6.2388,-6.2407,-6.24,0,0,0,0,0,0,0,0,0,0,-6.2397,-6.2417,-6.2398,-6.2399,-6.2388,-6.2388,-6.2388,-6.2399,-6.2401,-6.2415,0,-6.2429,0,-6.2419,-6.241,-6.241,0,0,0,-6.238,-6.2416,-6.2406,-6.2399,-6.2388,-6.2388,-6.2386,-6.24,-6.2401,-6.2416,-6.243,-6.243,-6.2419,-6.241,-6.241,-6.2516,-6.2517,0,0,-6.238,-6.2404,-6.2406,-6.2408,-6.2408,-6.2386,-6.2386,-6.24,-6.2417,-6.243,-6.243,-6.2419,-6.241,-6.241,-6.2515,-6.2516,0,0,0,-6.2385,-6.2404,-6.2394,-6.2407,-6.2406,-6.2386,-6.2386,-6.2416,-6.2411,-6.243,-6.242,-6.241,-6.2411,-6.2514,-6.2516,-6.2582,0,0,0,-6.2385,-6.2407,-6.2394,-6.2409,-6.2406,-6.2411,-6.2402,-6.241,-6.241,-6.2419,-6.241,-6.2411,-6.2513,-6.2515,-6.2578,-6.2609,0,0,0,-6.2394,-6.2408,-6.2412,-6.241,-6.2411,-6.241,-6.2405,-6.2409,-6.2405,-6.241,-6.2411,-6.2513,-6.2515,-6.2574,-6.2603,-6.2645,0,0,0,-6.2412,-6.2471,-6.2413,-6.2475,-6.2411,-6.2451,-6.2405,-6.2433,-6.2445,-6.2411,-6.2513,-6.2516,-6.2573,-6.26,-6.2641,-6.2684,-6.2704,0,0,-6.25,-6.2482,-6.2517,-6.2465,-6.2521,-6.2449,-6.2514,-6.2503,-6.2481,-6.2506,-6.2508,-6.2579,-6.2603,-6.2644,-6.2806,-6.2822,0,0,0,-6.2553,-6.2578,-6.2587,-6.26,-6.2592,-6.2589,-6.2565,-6.2561,-6.258,-6.2499,-6.2604,-6.2617,-6.264,-6.266,-6.2674,-6.2692,-6.2525,-6.2525,-6.2525,-6.2713,-6.2682,-6.2737,-6.2706,-6.2719,-6.2693,-6.2701,-6.2691,-6.2657,-6.2682,-6.269,-6.2792,-6.2815,-6.2825,-6.2845,-6.2709,-6.2709,-6.2709,-6.271,-6.2839,-6.287,-6.2822,-6.2858,-6.2826,-6.2856,-6.2834,-6.2809,-6.2833,-6.2784,-6.2802,-6.2752,-6.2844,-6.286,-6.2714,-6.2714,-6.2713,-6.2712,-6.2712,-6.2941,-6.295,-6.2944,-6.2959,-6.2974,-6.2941,-6.2966,-6.2935,-6.2906,-6.2925,-6.293,-6.2928,-6.2924,-6.2929,-6.2929,-6.293,-6.293,-6.293,-6.2931,-6.305,-6.304,-6.3065,-6.3061,-6.3065,-6.3067,-6.3042,-6.3045,-6.3041,-6.3017,-6.3017,-6.298,-6.2858,-6.2829,-6.2936,-6.2935,-6.2934,-6.2934,-6.2933,-6.3191,-6.3154,-6.3192,-6.3196,-6.319,-6.3207,-6.3167,-6.3177,-6.3175,-6.3189,-6.3148,-6.3063,-6.3043,-6.3032,-6.3007,-6.3154,-6.3154,-6.3154,-6.3154,-6.3277,-6.3264,-6.3296,-6.3305,-6.3309,-6.3277,-6.3322,-6.3304,-6.3279,-6.3276,-6.325,-6.3215,-6.3205,-6.3191,-6.3176,-6.3153,-6.3333,-6.3334,-6.3334,-6.3363,-6.3348,-6.3393,-6.3367,-6.3359,-6.3354,-6.3396,-6.3409,-6.3373,-6.334,-6.3274,-6.3266,-6.3208,-6.3191,-6.3158,-6.3136,-6.3093,0,0]}]]